{"data":{"norad_id":62631,"intl_designator":"2025-009Y","name":"PELICAN-2","alt_names":[],"object_type":"PAYLOAD","status":"ACTIVE","operator":null,"country":"US","launch_date":"2025-01-14","launch_site_code":"AFWTR","launch_vehicle":null,"mission":null,"orbit_class":"UNKNOWN","rcs_meters":null,"size_class":null,"mass_kg":null,"dimensions":null,"purposes":["earth_obs"],"wikipedia_slug":null,"has_3d_model":false,"image_url":null,"decayed_at":null,"tle_current":{"epoch":"2026-05-24T23:44:04.415136Z","epoch_age_seconds":76330,"freshness":"FRESH","line1":"1 62631U 25009Y   26144.98893999  .00000305  00000+0  95150-5 0  9997","line2":"2 62631  97.3098 235.8859 0001466  52.6464 307.4915 15.40600230 75989","mean_motion":15.4060023,"eccentricity":0.0001466,"inclination_deg":97.3098,"raan_deg":235.8859,"arg_perigee_deg":52.6464,"mean_anomaly_deg":307.4915,"bstar":9.515e-6,"rev_number":7598,"period_min":93.470062639157,"perigee_km":443.33650809536,"apogee_km":445.33685737914,"semimajor_km":6822.4736827373,"source":"CELESTRAK","updated_at":"2026-05-25T13:38:13.337098Z"}}}